weather.gov     
National Weather Service

Regional Weather Roundup
NWS Homepage
This page is being discontinued on March 12, 2014.
The same data is available at this site. Please update your bookmarks.
Thank you, and we apologize for the inconvenience.
Please send an email to SR-SRH.Webmaster@noaa.gov with any concerns.


Current Version
Previous Version:    01  02  03  04  05  06  07  08  09  10  11  12  13  14  15  16  17  18  19  20  21  22  23  24  25  26  27  28  
[Printable]
531
ASUS41 KALY 021610
RWRALY

NEW YORK STATE HOURLY WEATHER ROUNDUP
NATIONAL WEATHER SERVICE ALBANY NY
1200 PM EDT THU OCT 02 2014

NOTE: "FAIR" INDICATES FEW OR NO CLOUDS BELOW 12,000 FEET WITH NO
SIGNIFICANT WEATHER AND/OR NO OBSTRUCTIONS TO VISIBILITY.

NYZ032-033-038>043-046>054-057>066-NYZ062>081-021700-
EAST


CITY           SKY/WX    TMP DP  RH WIND       PRES   REMARKS
ALBANY         PTSUNNY   65  56  72 VRB3      30.17F
GLENS FALLS    CLOUDY    64  55  72 CALM      30.16F
POUGHKEEPSIE   PTSUNNY   66  56  70 N8        30.15F
NEWBURGH       PTSUNNY   63  57  82 NE6       30.17
MONTGOMERY     CLOUDY    64  56  75 NE9       30.15F
WHITE PLAINS   PTSUNNY   64  54  69 N9        30.14F
ISLIP          CLOUDY    62  55  77 N13       30.11S
NEW YORK CITY  CLOUDY    64  54  69 NE10      30.14F
CENTRAL PARK   CLOUDY    65  54  67 VRB3      30.17F
$$

NYZ005>009-017-018-044>046-055-056-021700-
CENTRAL


CITY           SKY/WX    TMP DP  RH WIND       PRES   REMARKS
FULTON         MOSUNNY   67  57  70 SE3       30.13F
SYRACUSE       PTSUNNY   70  57  63 CALM      30.12F
ROME           MOSUNNY   67  58  72 SE12      30.15F
ELMIRA         CLOUDY    65  57  75 S7        30.14F
BINGHAMTON     CLOUDY    63  54  72 CALM      30.16R
MONTICELLO     CLOUDY    61  54  77 E5        30.18F
$$

NYZ026>034-041>043-021700-
NORTH


CITY           SKY/WX    TMP DP  RH WIND       PRES   REMARKS
WATERTOWN      MOSUNNY   72  54  53 N5        30.12F
FORT DRUM      NOT AVBL
MASSENA        SUNNY     63  54  72 E7        30.17F
SARANAC LAKE   SUNNY     62  50  64 NE3       30.15F
PLATTSBURGH    SUNNY     59  53  80 E7        30.18F
$$

NYZ001>004-010>016-019>021-021700-
WEST


CITY           SKY/WX    TMP DP  RH WIND       PRES   REMARKS
NIAGARA FALLS  MOSUNNY   70  58  65 SW7       30.07F
BUFFALO        MOSUNNY   70  57  63 SW5       30.08F
DUNKIRK        MOSUNNY   67  57  70 SW13G24   30.09F
JAMESTOWN      CLOUDY    57  55  94 SE8       30.13S
WELLSVILLE     CLOUDY    60  54  80 SE8       30.16F
ROCHESTER      MOSUNNY   69  59  70 SE6       30.10F
PENN YAN       CLOUDY    65  57  75 SW6       30.14F
$$

             KEY
       WCI = WIND CHILL INDEX
       VSB = VISIBILITY
       HX  = HEAT INDEX
$$




U.S. Dept. of Commerce
NOAA National Weather Service
1325 East West Highway
Silver Spring, MD 20910
E-mail: w-nws.webmaster@noaa.gov
Page last modified: May 16, 2007
NATIONAL WEATHER SERVICE: for Safety, for Work, for Fun - FOR LIFE